Fayetteville, AR

10:42 PM CST on February 21, 2018 (GMT -0600)
Drake

Weather History for KFYV - March, 2013

Change the Weather History Date:

Thursday, March 21, 2013

  Actual Average Record
Temperature  
Mean Temperature 37 °F 50 °F  
Max Temperature 44 °F 62 °F 84 °F (1997)
Min Temperature 29 °F 38 °F 16 °F (1965)
Degree Days  
Heating Degree Days 28 16  
Month to date heating degree days 440 386  
Since 1 July heating degree days 3511 3689  
Cooling Degree Days 0 0  
Month to date cooling degree days 1 0  
Year to date cooling degree days 1 0  
Moisture  
Dew Point 28 °F    
Average Humidity 64    
Maximum Humidity 100    
Minimum Humidity 27    
Precipitation  
Precipitation 0.35 in 0.12 in 1.33 in (2009)
Month to date precipitation 2.34 2.60  
Year to date precipitation 8.19 8.25  
Sea Level Pressure  
Sea Level Pressure 29.90 in    
Wind  
Wind Speed 8 mph (East)    
Max Wind Speed 15 mph    
Max Gust Speed 21 mph    
Visibility 8 miles    
Events Rain , Snow , Thunderstorm    
T = Trace of Precipitation, MM = Missing Value Source: NWS Daily Summary

Daily Weather History Graph

Daily Weather History Graph

Search for Another Location

Airport or City:

Trip Planner

Search our weather history database for the weather conditions in past years. The results will help you decide how hot, cold, wet, or windy it might be!

Date:

Astronomy

Mar. 21, 2013 Rise Set
Actual Time 7:18 AM CDT 7:29 PM CDT
Civil Twilight 6:52 AM CDT 7:55 PM CDT
Nautical Twilight 6:23 AM CDT 8:25 PM CDT
Astronomical Twilight 5:52 AM CDT 8:55 PM CDT
Moon 2:08 PM CDT (3/21) 3:31 AM CDT (3/21)
Length of Visible Light 13h 02m
Length of Day
12h 11m
Waxing Gibbous, 69% of the Moon is Illuminated
Mar 21
Waxing Gibbous
Mar 27
Full
Apr 2
Last Quarter
Apr 10
New
Apr 18
First Quarter

Hourly Weather History & Observations

Time (CDT) Temp. Windchill Dew Point Humidity Pressure Visibility Wind Dir Wind Speed Gust Speed Precip Events Conditions
12:53 AM 30.9 °F - 25.0 °F 79% 30.12 in 10.0 mi Calm Calm - N/A   Clear
1:53 AM 30.9 °F - 24.1 °F 76% 30.09 in 10.0 mi Calm Calm - N/A   Clear
2:53 AM 32.0 °F 27.5 °F 19.0 °F 59% 30.06 in 10.0 mi ENE 4.6 mph - N/A   Clear
3:53 AM 32.0 °F 26.4 °F 19.0 °F 59% 30.03 in 10.0 mi ENE 5.8 mph - N/A   Scattered Clouds
4:53 AM 32.0 °F 26.4 °F 19.0 °F 59% 30.02 in 10.0 mi ENE 5.8 mph - N/A   Overcast
5:53 AM 33.1 °F 28.7 °F 19.0 °F 56% 30.02 in 10.0 mi ENE 4.6 mph - N/A   Overcast
6:53 AM 33.1 °F 28.7 °F 19.0 °F 56% 30.03 in 10.0 mi East 4.6 mph - N/A   Scattered Clouds
7:53 AM 34.0 °F 27.2 °F 16.0 °F 48% 30.02 in 10.0 mi ENE 8.1 mph - N/A   Mostly Cloudy
8:53 AM 36.0 °F 29.0 °F 15.1 °F 43% 30.01 in 10.0 mi East 9.2 mph - N/A   Clear
9:53 AM 39.0 °F 32.8 °F 10.9 °F 32% 30.00 in 10.0 mi East 9.2 mph 18.4 mph N/A   Mostly Cloudy
10:53 AM 43.0 °F 37.2 °F 12.0 °F 28% 29.99 in 10.0 mi East 10.4 mph - N/A   Mostly Cloudy
11:53 AM 44.1 °F 39.0 °F 12.0 °F 27% 29.97 in 10.0 mi ESE 9.2 mph - N/A   Overcast
12:53 PM 39.9 °F 31.4 °F 23.0 °F 51% 29.95 in 4.0 mi ESE 16.1 mph 20.7 mph 0.00 in   Unknown
1:09 PM 37.4 °F 30.3 °F 26.6 °F 65% 29.93 in 2.5 mi ESE 10.4 mph - 0.00 in Snow Light Snow
1:53 PM 34.0 °F 26.0 °F 30.9 °F 89% 29.94 in 2.5 mi East 10.4 mph 18.4 mph 0.01 in Snow Light Snow
2:00 PM 33.8 °F 26.4 °F 30.2 °F 87% 29.91 in 1.5 mi ESE 9.2 mph - 0.01 in Snow Light Snow
2:12 PM 33.8 °F 28.6 °F 32.0 °F 93% 29.90 in 1.5 mi East 5.8 mph - 0.02 in Snow Light Snow
2:27 PM 33.8 °F 27.7 °F 32.0 °F 93% 29.88 in 3.0 mi Variable 6.9 mph - 0.04 in Snow Light Snow
2:44 PM 33.8 °F 27.0 °F 32.0 °F 93% 29.86 in 5.0 mi East 8.1 mph - 0.05 in Snow Light Snow
2:53 PM 33.1 °F 26.1 °F 32.0 °F 96% 29.88 in 5.0 mi ESE 8.1 mph - 0.06 in Rain Light Rain
3:53 PM 34.0 °F 24.6 °F 32.0 °F 92% 29.84 in 6.0 mi ESE 13.8 mph - 0.04 in Rain Light Rain
4:53 PM 34.0 °F 27.2 °F 33.1 °F 96% 29.83 in 5.0 mi East 8.1 mph - 0.08 in Rain Light Rain
5:18 PM 35.6 °F 29.2 °F 33.8 °F 93% 29.80 in 10.0 mi East 8.1 mph - 0.04 in Rain Light Rain
5:53 PM 36.0 °F 29.0 °F 33.1 °F 89% 29.81 in 10.0 mi East 9.2 mph - 0.04 in   Overcast
6:45 PM 35.6 °F 28.6 °F 32.0 °F 87% 29.80 in 10.0 mi East 9.2 mph - N/A   Overcast
6:53 PM 35.1 °F 28.6 °F 33.1 °F 92% 29.83 in 10.0 mi East 8.1 mph - N/A   Overcast
7:53 PM 35.1 °F 28.6 °F 33.1 °F 92% 29.83 in 7.0 mi East 8.1 mph 17.3 mph 0.01 in Rain Light Rain
8:53 PM 35.1 °F 28.6 °F 33.1 °F 92% 29.83 in 8.0 mi East 8.1 mph - 0.03 in Rain Light Rain
9:10 PM 35.6 °F 30.7 °F 33.8 °F 93% 29.81 in 8.0 mi ESE 5.8 mph - 0.01 in Rain Light Rain
9:22 PM 35.6 °F 29.2 °F 33.8 °F 93% 29.81 in 9.0 mi East 8.1 mph - 0.01 in   Overcast
9:53 PM 35.1 °F 27.9 °F 33.1 °F 92% 29.83 in 7.0 mi East 9.2 mph - 0.02 in Rain Light Rain
10:25 PM 35.6 °F 29.2 °F 33.8 °F 93% 29.82 in 10.0 mi East 8.1 mph - 0.01 in   Overcast
10:39 PM 35.6 °F 31.7 °F 33.8 °F 93% 29.82 in 9.0 mi ENE 4.6 mph - 0.02 in Rain Light Rain
10:53 PM 35.1 °F 31.0 °F 34.0 °F 96% 29.85 in 9.0 mi Variable 4.6 mph - 0.04 in Rain Light Rain
11:15 PM 35.6 °F 29.9 °F 33.8 °F 93% 29.82 in 5.0 mi East 6.9 mph - 0.02 in Rain , Thunderstorm Rain
11:32 PM 35.6 °F 29.2 °F 33.8 °F 93% 29.83 in 10.0 mi East 8.1 mph - 0.02 in Thunderstorm Overcast
11:40 PM 35.6 °F 30.7 °F 33.8 °F 93% 29.83 in 10.0 mi ENE 5.8 mph - 0.02 in   Overcast
11:53 PM 36.0 °F 30.3 °F 34.0 °F 93% 29.83 in 10.0 mi East 6.9 mph - 0.02 in   Overcast
11:59 PM 35.6 °F 29.9 °F 33.8 °F 93% 29.82 in 10.0 mi ENE 6.9 mph - N/A   Overcast